DW2537 Weather Reports


time (UTC)temp
C
wind
direction
speed
KPH
gust
KPH
rain 1hr
cm
rain 24hr
cm
rain mn
cm
humidity
%
barometer
mb
20260510144017 23 134 3.2 6.4 0.00 0.00 0.00 57 1013.1
20260510143515 23 38 0.0 3.2 0.00 0.00 0.00 57 1013.1
20260510143033 23 123 1.6 4.8 0.00 0.00 0.00 55 1013.0
20260510142518 23 79 1.6 4.8 0.00 0.00 0.00 54 1012.8
20260510142018 22 334 1.6 4.8 0.00 0.00 0.00 55 1012.9
20260510141532 22 0 0.0 6.4 0.00 0.00 0.00 55 1013.0
20260510141019 22 0 0.0 6.4 0.00 0.00 0.00 56 1013.1
20260510140517 22 190 0.0 6.4 0.00 0.00 0.00 57 1013.2
20260510140031 21 153 3.2 6.4 0.00 0.00 0.00 61 1013.2
20260510135517 21 198 3.2 6.4 0.00 0.00 0.00 57 1013.2
20260510135015 21 348 1.6 4.8 0.00 0.00 0.00 63 1013.2
20260510134535 21 11 1.6 4.8 0.00 0.00 0.00 58 1013.2
20260510134015 21 194 1.6 4.8 0.00 0.00 0.00 66 1013.2
20260510133515 21 141 0.0 3.2 0.00 0.00 0.00 65 1013.2
20260510133032 21 213 1.6 4.8 0.00 0.00 0.00 64 1013.1
20260510132515 20 336 1.6 4.8 0.00 0.00 0.00 65 1013.1
20260510132014 20 0 0.0 3.2 0.00 0.00 0.00 68 1013.1
20260510131532 20 0 0.0 3.2 0.00 0.00 0.00 69 1013.0
20260510131015 19 0 0.0 3.2 0.00 0.00 0.00 73 1013.1
20260510130515 18 188 0.0 6.4 0.00 0.00 0.00 75 1013.3
20260510130033 18 190 1.6 6.4 0.00 0.00 0.00 73 1013.3
20260510125519 18 221 1.6 3.2 0.00 0.00 0.00 72 1013.4
20260510125014 18 190 0.0 3.2 0.00 0.00 0.00 73 1013.5
20260510124542 17 301 0.0 3.2 0.00 0.00 0.00 76 1013.5
20260510124014 17 82 0.0 3.2 0.00 0.00 0.00 75 1013.5
20260510123515 17 68 0.0 3.2 0.00 0.00 0.00 79 1013.4
20260510123032 16 0 0.0 3.2 0.00 0.00 0.00 79 1013.5
20260510122515 16 0 0.0 3.2 0.00 0.00 0.00 79 1013.4
20260510122015 16 0 0.0 3.2 0.00 0.00 0.00 81 1013.4
20260510121532 15 0 0.0 3.2 0.00 0.00 0.00 87 1013.4
20260510121016 15 0 0.0 3.2 0.00 0.00 0.00 84 1013.3
20260510120517 14 0 0.0 3.2 0.00 0.00 0.00 87 1013.2
20260510120032 13 0 0.0 3.2 0.00 0.00 0.00 89 1013.3
20260510115518 13 0 0.0 3.2 0.00 0.00 0.00 91 1013.2
20260510115016 12 0 0.0 3.2 0.00 0.00 0.00 97 1013.2
20260510114533 12 63 0.0 3.2 0.00 0.00 0.00 97 1013.2
20260510114016 11 0 0.0 3.2 0.00 0.00 0.00 97 1013.1
20260510113514 11 0 0.0 0.0 0.00 0.00 0.00 97 1013.1
20260510113037 11 0 0.0 3.2 0.00 0.00 0.00 97 1012.9
20260510112519 10 0 0.0 3.2 0.00 0.00 0.00 97 1012.8
20260510112015 10 0 0.0 3.2 0.00 0.00 0.00 97 1012.7
20260510111538 10 0 0.0 0.0 0.00 0.00 0.00 97 1012.7
20260510111014 10 0 0.0 3.2 0.00 0.00 0.00 96 1012.5
20260510110515 10 0 0.0 3.2 0.00 0.00 0.00 96 1012.5
20260510110037 10 0 0.0 3.2 0.00 0.00 0.00 96 1012.5
20260510105515 9 0 0.0 0.0 0.00 0.00 0.00 96 1012.5
20260510105015 9 0 0.0 0.0 0.00 0.00 0.00 96 1012.4
20260510104532 9 0 0.0 0.0 0.00 0.00 0.00 96 1012.1
20260510104014 9 0 0.0 0.0 0.00 0.00 0.00 96 1011.9
20260510103517 9 0 0.0 0.0 0.00 0.00 0.00 95 1011.9
20260510103034 9 0 0.0 3.2 0.00 0.00 0.00 95 1011.8
20260510102518 9 0 0.0 3.2 0.00 0.00 0.00 95 1011.8
20260510102022 9 0 0.0 3.2 0.00 0.00 0.00 96 1011.6
20260510101539 9 0 0.0 0.0 0.00 0.00 0.00 95 1011.6
20260510101018 9 0 0.0 0.0 0.00 0.00 0.00 95 1011.6
20260510100518 9 0 0.0 3.2 0.00 0.00 0.00 95 1011.6
20260510100038 9 0 0.0 3.2 0.00 0.00 0.00 95 1011.6
20260510095518 9 109 0.0 3.2 0.00 0.00 0.00 95 1011.6
20260510095018 9 0 0.0 0.0 0.00 0.00 0.00 95 1011.7
20260510094533 10 0 0.0 0.0 0.00 0.00 0.00 95 1011.7
20260510094018 10 0 0.0 3.2 0.00 0.00 0.00 95 1011.6
20260510093519 10 0 0.0 3.2 0.00 0.00 0.00 95 1011.7
20260510093055 10 109 0.0 3.2 0.00 0.00 0.00 95 1011.8
20260510092519 10 98 0.0 0.0 0.00 0.00 0.00 95 1011.7
20260510092018 10 0 0.0 0.0 0.00 0.00 0.00 95 1011.6
20260510091532 10 0 0.0 0.0 0.00 0.00 0.00 95 1011.4
20260510091018 10 0 0.0 0.0 0.00 0.00 0.00 95 1011.5
20260510090518 10 0 0.0 0.0 0.00 0.00 0.00 95 1011.4
20260510090050 10 0 0.0 0.0 0.00 0.00 0.00 95 1011.3
20260510085518 10 0 0.0 0.0 0.00 0.00 0.00 95 1011.3
20260510085020 10 0 0.0 0.0 0.00 0.00 0.00 95 1011.2
20260510084539 10 0 0.0 0.0 0.00 0.00 0.00 96 1011.2
20260510084020 10 0 0.0 0.0 0.00 0.00 0.00 95 1011.2
20260510083518 10 0 0.0 0.0 0.00 0.00 0.00 95 1011.2
20260510083032 10 0 0.0 0.0 0.00 0.00 0.00 95 1011.2
20260510082518 10 0 0.0 0.0 0.00 0.00 0.00 94 1011.2
20260510082018 10 0 0.0 0.0 0.00 0.00 0.00 94 1011.1
20260510081533 10 0 0.0 0.0 0.00 0.00 0.00 94 1011.0
20260510081019 10 0 0.0 0.0 0.00 0.00 0.00 94 1010.8
20260510080519 10 0 0.0 0.0 0.00 0.00 0.00 94 1010.8
20260510080045 10 0 0.0 0.0 0.00 0.00 0.00 94 1010.6
20260510075517 10 0 0.0 0.0 0.00 0.00 0.00 94 1010.5
20260510075021 10 0 0.0 0.0 0.00 0.00 0.00 94 1010.4
20260510074540 10 0 0.0 0.0 0.00 0.00 0.00 94 1010.3
20260510074019 10 0 0.0 0.0 0.00 0.00 0.00 94 1010.3
20260510073519 10 0 0.0 0.0 0.00 0.00 0.00 94 1010.4
20260510073039 10 0 0.0 0.0 0.00 0.00 0.00 94 1010.3
20260510072519 10 0 0.0 0.0 0.00 0.00 0.00 94 1010.3
20260510072018 11 0 0.0 0.0 0.00 0.00 0.00 94 1010.3
20260510071535 11 0 0.0 0.0 0.00 0.00 0.00 94 1010.4
20260510071018 11 0 0.0 0.0 0.00 0.00 0.00 94 1010.3
20260510070515 11 0 0.0 0.0 0.00 0.00 0.00 94 1010.2
20260510070033 11 0 0.0 0.0 0.00 0.00 0.00 94 1010.2
20260510065519 11 0 0.0 0.0 0.00 0.00 0.00 94 1010.1
20260510065017 11 0 0.0 0.0 0.00 0.00 0.00 94 1010.0
20260510064534 11 0 0.0 0.0 0.00 0.00 0.00 94 1010.1
20260510064015 11 0 0.0 0.0 0.00 0.00 0.00 94 1010.0
20260510063519 11 0 0.0 0.0 0.00 0.00 0.00 93 1010.0
20260510063031 11 0 0.0 0.0 0.00 0.00 0.00 93 1010.1
20260510062516 11 0 0.0 0.0 0.00 0.00 0.00 93 1010.0
20260510062015 11 0 0.0 0.0 0.00 0.00 0.00 93 1010.1
20260510061531 11 0 0.0 0.0 0.00 0.00 0.00 93 1010.0
20260510061017 11 0 0.0 0.0 0.00 0.00 0.00 93 1010.0
20260510060515 11 0 0.0 0.0 0.00 0.00 0.00 93 1010.0
20260510060034 11 0 0.0 0.0 0.00 0.00 0.00 93 1010.1
20260510055518 11 0 0.0 0.0 0.00 0.00 0.00 92 1010.1
20260510055015 11 0 0.0 0.0 0.00 0.00 0.00 93 1010.1
20260510054532 12 0 0.0 0.0 0.00 0.00 0.00 93 1010.2
20260510054016 12 0 0.0 0.0 0.00 0.00 0.00 92 1010.2
20260510053514 12 0 0.0 1.6 0.00 0.00 0.00 92 1010.1
20260510053033 12 0 0.0 1.6 0.00 0.00 0.00 92 1010.2
20260510052515 12 0 0.0 1.6 0.00 0.00 0.00 92 1010.1
20260510052017 12 0 0.0 1.6 0.00 0.00 0.00 92 1010.1
20260510051533 12 84 0.0 1.6 0.00 0.00 0.00 92 1010.1
20260510051016 12 0 0.0 0.0 0.00 0.00 0.00 92 1010.1
20260510050518 12 0 0.0 0.0 0.00 0.00 0.00 92 1010.1
20260510050031 12 0 0.0 3.2 0.00 0.00 0.00 92 1010.2
20260510045515 12 0 0.0 3.2 0.00 0.00 0.00 92 1010.2
20260510045016 12 0 0.0 3.2 0.00 0.00 0.00 92 1010.2
20260510044542 12 0 0.0 1.6 0.00 0.00 0.00 92 1010.2
20260510044016 12 84 0.0 1.6 0.00 0.00 0.00 91 1010.3
20260510043516 12 0 0.0 0.0 0.00 0.00 0.00 91 1010.3
20260510043032 12 0 0.0 0.0 0.00 0.00 0.00 91 1010.3
20260510042514 12 0 0.0 0.0 0.00 0.00 0.00 91 1010.4
20260510042016 12 0 0.0 0.0 0.00 0.00 0.00 90 1010.2
20260510041532 12 0 0.0 0.0 0.00 0.00 0.00 90 1010.2
20260510041017 13 0 0.0 0.0 0.00 0.00 0.00 90 1010.2
20260510040516 13 0 0.0 0.0 0.00 0.00 0.00 90 1010.1
20260510040032 13 0 0.0 0.0 0.00 0.00 0.00 90 1010.1
20260510035516 13 0 0.0 0.0 0.00 0.00 0.00 90 1010.1
20260510035015 13 0 0.0 3.2 0.00 0.00 0.00 89 1010.1
20260510034535 13 0 0.0 3.2 0.00 0.00 0.00 89 1010.1
20260510034014 13 0 0.0 0.0 0.00 0.00 0.00 89 1010.0
20260510033515 13 0 0.0 0.0 0.00 0.00 0.00 88 1010.1
20260510033032 13 0 0.0 0.0 0.00 0.00 0.00 88 1010.1
20260510032516 13 0 0.0 0.0 0.00 0.00 0.00 88 1010.0
20260510032017 13 0 0.0 0.0 0.00 0.00 0.00 88 1010.1
20260510031540 13 0 0.0 0.0 0.00 0.00 0.00 87 1010.0
20260510031016 14 0 0.0 0.0 0.00 0.00 0.00 87 1010.0
20260510030518 14 0 0.0 0.0 0.00 0.00 0.00 86 1009.9
20260510030038 14 0 0.0 0.0 0.00 0.00 0.00 86 1009.9
20260510025515 14 0 0.0 0.0 0.00 0.00 0.00 86 1009.9
20260510025018 15 0 0.0 3.2 0.00 0.00 0.00 85 1009.9
20260510024531 15 0 0.0 3.2 0.00 0.00 0.00 85 1009.8
20260510024015 15 0 0.0 3.2 0.00 0.00 0.00 85 1009.8
20260510023519 15 0 0.0 3.2 0.00 0.00 0.00 84 1009.9
20260510023033 15 0 0.0 1.6 0.00 0.00 0.00 84 1009.8
20260510022518 15 0 0.0 1.6 0.00 0.00 0.00 84 1009.8
20260510022014 15 0 0.0 1.6 0.00 0.00 0.00 84 1009.9
20260510021534 15 0 0.0 1.6 0.00 0.00 0.00 83 1009.8
20260510021014 15 0 0.0 3.2 0.00 0.00 0.00 83 1009.8
20260510020517 15 0 0.0 3.2 0.00 0.00 0.00 83 1009.8
20260510020031 15 0 0.0 3.2 0.00 0.00 0.00 83 1009.7
20260510015520 15 0 0.0 3.2 0.00 0.00 0.00 83 1009.6
20260510015015 16 88 0.0 3.2 0.00 0.00 0.00 82 1009.5
20260510014530 16 0 0.0 3.2 0.00 0.00 0.00 81 1009.4
20260510014015 16 88 0.0 3.2 0.00 0.00 0.00 81 1009.3
20260510013517 16 0 0.0 3.2 0.00 0.00 0.00 80 1009.3
20260510013033 16 78 0.0 3.2 0.00 0.00 0.00 80 1009.3
20260510012515 16 0 0.0 3.2 0.00 0.00 0.00 80 1009.3
20260510012019 16 140 0.0 3.2 0.00 0.00 0.00 79 1009.3
20260510011532 16 0 0.0 3.2 0.00 0.00 0.00 78 1009.2
20260510011017 16 128 0.0 3.2 0.00 0.00 0.00 77 1009.1
20260510010517 17 0 0.0 3.2 0.00 0.00 0.00 77 1009.1
20260510010038 17 92 0.0 3.2 0.00 0.00 0.00 76 1009.1
20260510005516 17 98 0.0 3.2 0.00 0.00 0.00 75 1009.0
20260510005018 17 98 0.0 3.2 0.00 0.00 0.00 75 1009.0
20260510004532 17 0 0.0 3.2 0.00 0.00 0.00 74 1009.1
20260510004019 17 90 0.0 3.2 0.00 0.00 0.00 73 1009.0
20260510003515 17 0 0.0 3.2 0.00 0.00 0.00 72 1009.0
20260510003034 17 120 0.0 3.2 0.00 0.00 0.00 71 1008.8
20260510002514 18 0 0.0 3.2 0.00 0.00 0.00 71 1009.0
20260510002014 18 0 0.0 3.2 0.00 0.00 0.00 71 1008.9
20260510001532 18 119 0.0 3.2 0.00 0.00 0.00 70 1008.9
20260510001017 18 99 0.0 3.2 0.00 0.00 0.00 70 1008.9
20260510000515 18 0 0.0 3.2 0.00 0.00 0.00 69 1008.9
20260510000030 18 51 0.0 3.2 0.00 0.00 0.00 69 1008.8
20260509235517 18 0 0.0 4.8 0.00 0.00 0.00 69 1008.7
20260509235015 19 0 0.0 4.8 0.00 0.00 0.00 69 1008.7
20260509234530 19 119 0.0 3.2 0.00 0.00 0.00 69 1008.6
20260509234017 19 0 0.0 3.2 0.00 0.00 0.00 68 1008.5
20260509233516 19 91 0.0 3.2 0.00 0.00 0.00 68 1008.5
20260509233036 19 0 0.0 3.2 0.00 0.00 0.00 68 1008.5
20260509232517 19 140 0.0 4.8 0.00 0.00 0.00 67 1008.5
20260509232017 20 108 0.0 6.4 0.00 0.00 0.00 67 1008.5
20260509231533 20 133 0.0 6.4 0.00 0.00 0.00 66 1008.5
20260509231015 20 120 1.6 6.4 0.00 0.00 0.00 65 1008.3
20260509230518 20 221 0.0 3.2 0.00 0.00 0.00 62 1008.4
20260509230033 20 93 0.0 3.2 0.00 0.00 0.00 65 1008.4
20260509225519 20 245 0.0 3.2 0.00 0.00 0.00 62 1008.5
20260509225017 20 94 1.6 6.4 0.00 0.00 0.00 66 1008.4
20260509224537 20 130 0.0 6.4 0.00 0.00 0.00 66 1008.3
20260509224015 20 160 0.0 4.8 0.00 0.00 0.00 66 1008.4
20260509223515 20 78 1.6 6.4 0.00 0.00 0.00 66 1008.4
20260509223034 20 64 0.0 6.4 0.00 0.00 0.00 62 1008.4
20260509222515 20 78 1.6 6.4 0.00 0.00 0.00 64 1008.5
20260509222017 20 86 0.0 4.8 0.00 0.00 0.00 65 1008.4
20260509221531 20 180 1.6 4.8 0.00 0.00 0.00 65 1008.4
20260509221020 20 79 1.6 6.4 0.00 0.00 0.00 62 1008.4
20260509220520 20 0 1.6 6.4 0.00 0.00 0.00 62 1008.4
20260509220032 20 111 0.0 6.4 0.00 0.00 0.00 62 1008.4
20260509215517 20 69 1.6 6.4 0.00 0.00 0.00 64 1008.4
20260509215018 20 35 1.6 4.8 0.00 0.00 0.00 65 1008.5
20260509214542 20 124 1.6 4.8 0.00 0.00 0.00 64 1008.5
20260509214019 20 97 1.6 4.8 0.00 0.00 0.00 64 1008.5
20260509213518 20 56 0.0 3.2 0.00 0.00 0.00 66 1008.5
20260509213033 20 0 0.0 4.8 0.00 0.00 0.00 68 1008.5
20260509212517 20 0 0.0 4.8 0.00 0.00 0.00 64 1008.5
20260509212022 20 83 1.6 6.4 0.00 0.00 0.00 66 1008.5
20260509211541 20 138 1.6 6.4 0.00 0.00 0.00 66 1008.4
20260509211019 20 61 1.6 6.4 0.00 0.00 0.00 65 1008.3
20260509210518 20 82 1.6 6.4 0.00 0.00 0.00 65 1008.4
20260509210040 20 17 0.0 6.4 0.00 0.00 0.00 63 1008.3
20260509205518 20 68 1.6 8.0 0.00 0.00 0.00 63 1008.3
20260509205021 20 51 1.6 8.0 0.00 0.00 0.00 64 1008.2
20260509204538 21 61 1.6 8.0 0.00 0.00 0.00 60 1008.2
20260509204021 21 26 1.6 4.8 0.00 0.00 0.00 60 1008.1
20260509203518 21 103 1.6 4.8 0.00 0.00 0.00 63 1008.0
20260509203051 21 169 0.0 3.2 0.00 0.00 0.00 65 1008.1
20260509202518 21 118 1.6 6.4 0.00 0.00 0.00 61 1008.2
20260509202019 21 145 0.0 6.4 0.00 0.00 0.00 61 1008.2
20260509201534 21 53 1.6 6.4 0.00 0.00 0.00 61 1008.4
20260509201019 21 92 0.0 4.8 0.00 0.00 0.00 65 1008.4
20260509200521 20 173 0.0 4.8 0.00 0.00 0.00 66 1008.6
20260509200047 20 57 1.6 9.7 0.00 0.00 0.00 63 1008.6
20260509195518 20 38 1.6 9.7 0.00 0.00 0.00 62 1008.6
20260509195018 20 221 1.6 4.8 0.00 0.00 0.00 62 1008.7
20260509194532 20 9 1.6 4.8 0.00 0.00 0.00 64 1008.7
20260509194020 20 98 0.0 3.2 0.00 0.00 0.00 67 1008.8
20260509193518 20 95 0.0 3.2 0.00 0.00 0.00 67 1008.9
20260509193038 20 29 1.6 3.2 0.00 0.00 0.00 63 1009.0
20260509192519 20 24 0.0 3.2 0.00 0.00 0.00 65 1009.1
20260509192019 21 23 0.0 3.2 0.00 0.00 0.00 61 1009.0
20260509191548 20 227 0.0 3.2 0.00 0.00 0.00 59 1009.0
20260509191020 20 238 0.0 3.2 0.00 0.00 0.00 60 1008.9
20260509190519 20 200 0.0 3.2 0.00 0.00 0.00 63 1009.0
20260509190034 20 35 1.6 3.2 0.00 0.00 0.00 59 1009.0
20260509185519 20 167 0.0 3.2 0.00 0.00 0.00 64 1009.2
20260509185021 19 308 0.0 3.2 0.00 0.00 0.00 68 1009.4
20260509184535 19 223 0.0 3.2 0.00 0.00 0.00 67 1009.7
20260509184018 19 196 0.0 3.2 0.00 0.00 0.00 63 1009.8
20260509183519 19 0 0.0 3.2 0.00 0.00 0.00 64 1009.6
20260509183039 19 0 0.0 3.2 0.00 0.00 0.00 63 1009.6
20260509182518 19 0 0.0 3.2 0.00 0.00 0.00 60 1009.6
20260509182019 20 199 1.6 3.2 0.00 0.00 0.00 58 1009.7
20260509181540 20 213 0.0 9.7 0.00 0.00 0.00 63 1009.8
20260509181019 20 276 0.0 9.7 0.00 0.00 0.00 62 1009.9
20260509180519 20 170 1.6 4.8 0.00 0.00 0.00 59 1010.1
20260509180039 20 101 0.0 3.2 0.00 0.00 0.00 63 1010.1
20260509175519 20 138 0.0 3.2 0.00 0.00 0.00 66 1010.3
20260509175018 19 0 0.0 3.2 0.00 0.00 0.00 65 1010.2
20260509174538 19 0 0.0 3.2 0.00 0.00 0.00 60 1010.1
20260509174022 19 207 0.0 3.2 0.00 0.00 0.00 63 1010.1
20260509173520 18 0 0.0 3.2 0.00 0.00 0.00 63 1010.2
20260509173033 18 252 0.0 3.2 0.00 0.00 0.00 64 1010.1
20260509172518 18 0 0.0 3.2 0.00 0.00 0.00 63 1010.2
20260509172020 18 0 0.0 3.2 0.00 0.00 0.00 64 1010.3
20260509171539 18 0 0.0 3.2 0.00 0.00 0.00 63 1010.3
20260509171017 18 234 0.0 3.2 0.00 0.00 0.00 64 1010.3
20260509170518 18 9 0.0 3.2 0.00 0.00 0.00 64 1010.4
20260509170039 18 0 0.0 3.2 0.00 0.00 0.00 64 1010.4
20260509165518 19 0 1.6 3.2 0.00 0.00 0.00 64 1010.3
20260509165019 19 57 0.0 3.2 0.00 0.00 0.00 65 1010.2
20260509164539 19 169 0.0 4.8 0.00 0.00 0.00 62 1010.2
20260509164019 20 198 1.6 4.8 0.00 0.00 0.00 57 1010.2
20260509163519 20 163 0.0 4.8 0.00 0.00 0.00 56 1010.2
20260509163034 20 99 0.0 12.9 0.00 0.00 0.00 59 1010.2
20260509162518 20 262 1.6 12.9 0.00 0.00 0.00 59 1010.2
20260509162018 20 167 1.6 12.9 0.00 0.00 0.00 56 1010.3
20260509161535 20 170 1.6 3.2 0.00 0.00 0.00 57 1010.4
20260509161019 20 215 0.0 6.4 0.00 0.00 0.00 58 1010.4
20260509160518 20 231 1.6 8.0 0.00 0.00 0.00 56 1010.5
20260509160039 20 169 1.6 8.0 0.00 0.00 0.00 58 1010.5
20260509155517 20 230 0.0 6.4 0.00 0.00 0.00 61 1010.6
20260509155017 20 0 1.6 6.4 0.00 0.00 0.00 60 1010.7
20260509154538 20 188 1.6 9.7 0.00 0.00 0.00 57 1010.7
20260509154019 20 111 3.2 9.7 0.00 0.00 0.00 56 1010.5
20260509153518 20 304 1.6 9.7 0.00 0.00 0.00 61 1010.6
20260509153039 20 188 3.2 9.7 0.00 0.00 0.00 58 1010.7
20260509152518 20 72 1.6 3.2 0.00 0.00 0.00 61 1010.8
20260509152019 19 278 1.6 3.2 0.00 0.00 0.00 59 1011.0
20260509151539 19 153 1.6 6.4 0.00 0.00 0.00 62 1011.0
20260509151019 18 351 0.0 6.4 0.00 0.00 0.00 59 1011.1
20260509150518 18 278 1.6 11.3 0.00 0.00 0.00 61 1011.2
20260509150038 18 252 1.6 11.3 0.00 0.00 0.00 64 1011.3
20260509145518 17 350 1.6 4.8 0.00 0.00 0.00 64 1011.3
20260509145018 17 198 0.0 8.0 0.00 0.00 0.00 65 1011.5
20260509144539 17 290 1.6 8.0 0.00 0.00 0.00 63 1011.5